Regional Weather Roundup
Issued by NWS

Home | Current Version | Previous Version | Graphics & Text | Print | Product List | Glossary On
Versions: 1 2 3 4 5 6 7 8 9 10 11 12 13 14 15 16 17 18 19 20 21 22 23 24 25 26 27 28 29 30 31 32 33 34 35 36 37 38 39 40 41 42 43 44 45 46 47 48 49 50
000
ASUS43 KMKX 281400
RWRWI

WISCONSIN REGIONAL WEATHER ROUNDUP
NATIONAL WEATHER SERVICE MILWAUKEE/SULLIVAN WI
900 AM CDT SUN MAY 28 2017

NOTE: "FAIR" INDICATES FEW OR NO CLOUDS BELOW 12,000 FEET WITH NO
SIGNIFICANT WEATHER AND/OR OBSTRUCTIONS TO VISIBILITY.

WIZ001-002-006>008-014>016-023>028-281500-
NORTHWEST WISCONSIN

CITY           SKY/WX    TMP DP  RH WIND       PRES   REMARKS
SUPERIOR ARPT  NOT AVBL
ASHLAND        CLOUDY    61  49  64 SW7       29.67F
HAYWARD        LGT RAIN  59  49  69 SW5       29.68F
SIREN          PTSUNNY   58  50  74 W8        29.69S
CUMBERLAND     CLOUDY    57  46  67 SW6       29.70S
RICE LAKE      PTSUNNY   60  49  68 SW5       29.72S
CHETEK         CLOUDY    61  52  71 SW5       29.71S
LADYSMITH      CLOUDY    60  51  73 S9        29.72F
EAU CLAIRE     NOT AVBL
MENOMONIE      SUNNY     63  51  66 SW13      29.72R
NEW RICHMOND   SUNNY     62  49  64 W14       29.72R
OSCEOLA        SUNNY     61  49  66 W13       29.74S
$$

WIZ003>005-009-010-017-018-281500-
NORTH CENTRAL WISCONSIN

CITY           SKY/WX    TMP DP  RH WIND       PRES   REMARKS
MANITOWISH WTR CLOUDY    56  55  98 SE5       29.71F
ARBOR VITAE    PTSUNNY   59  54  82 S7        29.72S
WOODRUFF       PTSUNNY   59  54  82 S7        29.72S
RHINELANDER    CLOUDY    58  52  80 SE5       29.74F
EAGLE RIVER    CLOUDY    55  53  96 SE3       29.73F
LAND O LAKES   CLOUDY    56  51  85 SE5       29.75F
PHILLIPS       CLOUDY    56  54  91 SE6       29.71S
TOMAHAWK       MOSUNNY   56  53  91 CALM      29.74F
MEDFORD        SUNNY     58  51  77 S9        29.74S
MERRILL        MOSUNNY   57  53  89 SE6       29.74F
$$

WIZ029-030-035-036-043>047-281500-
CENTRAL WISCONSIN

CITY           SKY/WX    TMP DP  RH WIND       PRES   REMARKS
WAUSAU         MOSUNNY   59  53  80 SE3       29.73F
MOSINEE        MOSUNNY   57  57 100 SE3       29.76F
MARSHFIELD     SUNNY     61  53  75 S8        29.74F
STEVENS POINT  CLOUDY    55  53  93 CALM      29.76F
WAUPACA        DRIZZLE   60  56  88 CALM      29.78S
WAUTOMA        CLOUDY    60  55  83 CALM      29.78S
WISC RAPIDS    MOSUNNY   62  55  77 S5        29.77F
CAMP DOUGLAS   NOT AVBL
$$

WIZ011>013-019>022-031-037>040-048>050-281500-
NORTHEAST WISCONSIN

CITY           SKY/WX    TMP DP  RH WIND       PRES   REMARKS
ANTIGO         CLOUDY    54  52  95 CALM      29.75F
SHAWANO        LGT RAIN  59  56  89 W3        29.77S
OCONTO         CLOUDY    58  55  92 W5        29.75R
STURGEON BAY   RAIN      58  55  90 SW9       29.78R
GREEN BAY      RAIN      57  57 100 S6        29.78R FOG
MANITOWOC      NOT AVBL
APPLETON       DRIZZLE   55  55 100 VRB5      29.76F
CLINTONVILLE   LGT RAIN  57  54  88 CALM      29.76F
OSHKOSH        LGT RAIN  57  55  93 CALM      29.78S
$$

WIZ032>034-041-042-053>061-281500-
SOUTHWEST WISCONSIN

CITY           SKY/WX    TMP DP  RH WIND       PRES   REMARKS
LA CROSSE      SUNNY     66  56  70 S8        29.75F
SPARTA         SUNNY     61  56  82 W5        29.76F
VIROQUA        SUNNY     63  47  54 CALM      29.78S
BOSCOBEL       SUNNY     66  56  70 VRB5      29.79S
PRAIRIE DU CHI SUNNY     64  53  67 CALM      29.79S
PLATTEVILLE    MOSUNNY   61  58  91 CALM      29.80S
$$

WIZ056-057-062-063-064-067-068-281500-
SOUTH CENTRAL WISCONSIN

CITY           SKY/WX    TMP DP  RH WIND       PRES   REMARKS
REEDSBURG      CLOUDY    58  56  92 CALM      29.77S
BARABOO/DELLS  CLOUDY    58  54  86 CALM      29.78S
LONE ROCK      NOT AVBL
MINERAL POINT  CLOUDY    63  55  77 CALM      29.79F
MADISON        LGT RAIN  58  55  90 CALM      29.77S
MIDDLETON      CLOUDY    59  55  87 CALM      29.79S
WATERTOWN      LGT RAIN  56  56 100 N6        29.78S
MONROE         CLOUDY    57  55  94 N8        29.78F
JANESVILLE     CLOUDY    57  57 100 N6        29.79R
$$

WIZ051-052-058>065-066-070>072-281500-
SOUTHEAST WISCONSIN

CITY           SKY/WX    TMP DP  RH WIND       PRES   REMARKS
MILWAUKEE      TSTM      61  59  93 NW7       29.78R FOG
WAUKESHA       RAIN      57  57 100 N8        29.78S FOG
MILWAUKEE/TIMM TSTM      57  55  94 N5        29.78R FOG
RACINE         CLOUDY    61  56  83 NW6       29.79R
KENOSHA        CLOUDY    62  56  80 NW6       29.77R
FOND DU LAC    LGT RAIN  58  54  86 CALM      29.78S
SHEBOYGAN      RAIN      57  57 100 N5        29.78S FOG
WEST BEND      HVY RAIN  55  55 100 N7        29.78S
JUNEAU         DRIZZLE   56  55  96 N5        29.80R
$$

LSZ147-162-281500-
LAKE SUPERIOR

STATION/POSITION TIME  TEMP    WIND        PRES    WAVE
                       AIR SEA DIR/SP/G            HT/PER
                 (UTC) (F)     (DEG/KT/KT) (MB)    (FT/S)
W MID LAKE BUOY  1250   47 37  160/ 10/ 10 1004.7F   1
DEVILS ISLAND    1300   61     190/  9/ 13 1004.5R
PORT WING        1330   59      CALM  /  3 1004.7F
SAXON HARBOR     1340   66     180/  7/ 11 1004.4S
$$

LMZ867-665-643>646-281500-
LAKE MICHIGAN

STATION/POSITION TIME  TEMP    WIND        PRES    WAVE
                       AIR SEA DIR/SP/G            HT/PER
                 (UTC) (F)     (DEG/KT/KT) (MB)    (FT/S)
CHAMBERS ISLAND  1340   56      CALM  /  3 1006.4S
N MID LAKE BUOY  1250   46 41  330/  4/  4 1007.2F   1
NORTHPORT PIER   1340   54     290/  5/  8 1006.4F
ALGOMA LAKESHORE 1301          320/  3/  5   N/A
KEWAUNEE LAKESHO 1330   60     250/  7/ 10 1008.0R
SHEBOYGAN LAKESH 1300   59     320/  4/  5 1008.0R
PORT WASHINGTON  1340   58     300/  3/  9 1009.1S
ATWATER BUOY     1209   52     250/  4/  6 1007.7R
MILWAUKEE LAKESH 1330   61     360/  7/  9   N/A
S MID LAKE BUOY  1250   53 50  120/  2/  4 1007.5R   0
KENOSHA   LAKESH 1300   58     160/  3/  4 1007.5
$$

TC  - TEMPERATURE IN CELSIUS
VSB - VISIBILITY IN STATUTE MILES
WCI - WIND CHILL INDEX
HX  - HEAT INDEX





USA.gov is the U.S. government's official web portal to all federal, state and local government web resources and services.